Location: Slidell
(30.2789°N, 89.7378°W)
Time: 01:44:45
(UTC-05:00)

Daily predictions for brighter satellites

Satellite Brightness Start Highest point End
(mag) Time Altitude Azimuth Time Altitude Azimuth Time Altitude Azimuth
Terra 4.1 00:05:35 17° WNW 00:05:35 17° WNW 00:07:22 10° NW
Cosmos 2297 Rocket 4.3 00:05:33 16° W 00:07:20 19° WNW 00:11:16 10° NNW
ATLAS 3B R/B 3.4 00:27:51 10° NW 00:32:30 44° NW 00:32:30 44° NW
USA 238 DEB 4.2 00:40:04 10° NNW 00:45:45 58° N 00:45:45 58° N
USA 238 4.2 00:40:10 10° NNW 00:45:52 58° N 00:45:52 58° N
Cosmos 2263 Rocket 3.5 01:27:59 36° N 01:27:59 36° N 01:31:20 10° NNE
NOSS 3-4 (A) 4.5 01:38:07 41° NW 01:38:07 41° NW 01:43:27 10° NNE
NOSS 3-4 (C) 4.5 01:38:14 41° NW 01:38:14 41° NW 01:43:32 10° NNE
NOSS 3-2 (A) 4.1 01:35:32 10° NNW 01:43:00 73° NE 01:43:00 73° NE
CZ-4C R/B 3.1 01:40:44 10° NNW 01:46:52 66° NNW 01:46:52 66° NNW
CZ-2C R/B 4.4 01:47:45 10° N 01:50:19 24° NNW 01:50:19 24° NNW
NPP 4.3 02:27:59 10° NNE 02:32:08 51° NE 02:32:08 51° NE
USA 234 4.5 02:41:30 10° ESE 02:47:25 39° NE 02:53:22 10° NNW
CZ-2D R/B 4.0 02:45:12 10° NE 02:49:18 21° E 02:50:19 20° ESE
Cosmos 1535 Rocket 4.4 02:54:41 75° NW 02:54:41 75° NW 03:00:33 10° N
CENTAUR R/B 3.7 02:51:45 10° NNW 02:59:35 55° ENE 03:07:39 10° SE
Cosmos 1844 Rocket 3.3 03:06:36 44° NW 03:06:36 44° NW 03:11:29 10° N
IRS-1C 4.2 03:01:52 10° N 03:06:44 73° N 03:06:44 73° N
Meteor 1-11 Rocket 3.7 03:15:58 78° W 03:16:06 78° W 03:22:05 10° N
ARIANE 5 R/B 2.8 03:13:00 10° NNE 03:17:56 57° E 03:18:07 57° ESE
Cosmos 1461 3.9 03:19:20 47° NNW 03:19:20 47° NNW 03:23:06 10° NNE
Cosmos 1844 4.2 03:20:36 47° WNW 03:20:36 47° WNW 03:26:01 10° N
Cosmos 1420 Rocket 4.2 03:21:23 59° NW 03:21:23 59° NW 03:26:16 10° N
Meteor 1-13 Rocket 4.1 03:20:21 10° N 03:26:05 78° W 03:26:30 74° SW
Resurs 1-4 Rocket 2.7 03:21:43 10° NNE 03:26:53 51° E 03:27:59 43° SE
Cosmos 724 4.3 03:21:00 10° NNW 03:27:06 66° WSW 03:27:10 66° WSW
BREEZE-M DEB (TANK) 3.7 03:28:55 61° SSE 03:29:09 62° SE 03:32:46 10° ENE
Cosmos 1934 Rocket 4.2 03:29:13 51° W 03:29:30 52° W 03:35:30 10° N
Cosmos 1400 Rocket 3.5 03:30:49 50° NNE 03:30:49 50° NNE 03:33:47 10° N
Yuri Rocket 3.6 03:29:43 69° SW 03:30:14 74° S 03:35:24 10° E
ATLAS 5 CENTAUR R/B 4.0 03:27:27 10° N 03:33:00 35° NE 03:38:49 10° ESE
Cosmos 2278 Rocket 2.3 03:32:42 56° W 03:33:02 57° WNW 03:38:38 10° N
Cosmos 1633 4.0 03:34:35 34° N 03:34:35 34° N 03:36:46 10° N
Cosmos 2297 3.8 03:33:17 56° SSE 03:34:19 68° ESE 03:39:58 10° NNE
ADEOS 3.9 03:32:55 10° N 03:37:55 48° WNW 03:37:58 47° WNW
Cosmos 1140 Rocket 3.3 03:34:12 10° NNW 03:39:20 90° WSW 03:40:11 63° SSE
Meteor 1-23 Rocket 4.5 03:34:14 10° N 03:39:52 65° E 03:42:39 30° SSE
COSMOS 2487 3.7 03:36:42 10° NNW 03:39:09 40° N 03:39:09 40° N
COSMOS 2406 4.5 03:37:18 10° NW 03:40:33 26° WNW 03:40:33 26° WNW
Cosmos 1153 Rocket 4.4 03:44:34 46° SSW 03:46:37 84° W 03:53:02 10° N
Meteor 1-5 Rocket 4.3 03:44:52 43° S 03:46:53 78° E 03:52:40 10° N
Meteor 2-15 Rocket 4.3 03:46:11 10° N 03:52:19 72° W 03:54:30 41° SSW
Cosmos 2061 Rocket 4.4 03:49:14 24° SSE 03:53:03 60° E 03:59:19 10° NNE
Okean O Rocket 2.9 03:52:29 10° NNE 03:56:28 35° E 03:58:36 22° SSE
Cosmos 1455 Rocket 2.9 03:56:19 68° SW 03:56:44 74° W 04:01:11 10° N
Cosmos 2082 Rocket 4.0 03:52:34 10° N 03:57:37 32° ENE 04:02:37 10° SE
Cosmos 1025 Rocket 3.6 03:53:37 10° NNW 03:57:06 42° WNW 03:57:06 42° WNW
Cosmos 1315 Rocket 2.7 03:58:52 74° WSW 03:59:00 75° W 04:03:03 10° N
Cosmos 1850 Rocket 3.9 03:54:25 10° NNW 03:59:40 76° WSW 04:01:58 35° S
MOS 1-B 4.3 03:53:56 10° NNE 03:59:47 88° WNW 04:02:12 38° SSW
Cosmos 1741 Rocket 3.9 03:57:29 10° NNW 04:02:44 74° WSW 04:05:06 33° S
SL-16 R/B 2.4 04:04:21 21° S 04:08:42 75° WSW 04:14:55 10° NNW
Meteor 2-4 Rocket 3.6 04:04:44 10° NNW 04:10:00 59° W 04:11:57 37° SSW
Meteor 1-12 Rocket 4.4 04:08:43 24° S 04:12:22 78° E 04:18:10 10° N
Shi Jian 4 4.2 04:12:13 40° WSW 04:13:32 65° S 04:15:55 10° ESE
Cosmos 1975 2.9 04:15:05 34° S 04:16:42 71° E 04:20:41 10° N
CZ-4B R/B 4.4 04:13:11 10° NNE 04:17:23 38° E 04:20:57 13° SSE
SME Rocket 2.7 04:16:33 42° S 04:17:39 69° WSW 04:21:32 10° NNW
Cosmos 2016 Rocket 4.2 04:13:12 15° S 04:18:26 71° E 04:24:41 10° N
Chunghua 1 4.5 04:17:04 32° WNW 04:18:41 84° NNE 04:22:26 10° ESE
APEX 3.9 04:24:30 27° NW 04:24:30 27° NW 04:26:56 10° N
Skynet4D Del rocket 3.7 04:24:31 30° WSW 04:26:50 51° S 04:32:10 10° ESE
UNKNOWN OBJECT B 3.4 04:24:35 10° N 04:28:27 41° WNW 04:29:30 34° WSW
MTI 3.8 04:28:17 47° SSW 04:28:56 59° W 04:32:12 10° NNW
Okean 2 3.9 04:25:23 10° NNW 04:29:12 38° W 04:29:56 35° WSW
CZ-2D R/B 2.9 04:24:21 10° N 04:29:22 38° WNW 04:31:39 26° WSW
USA 234 3.4 04:24:00 10° SSE 04:30:14 48° SW 04:36:31 10° NW
CZ-2C R/B 4.2 04:25:41 10° SSE 04:30:21 65° ENE 04:35:06 10° N
ASC 2 Rocket 3.7 04:29:55 31° SW 04:31:09 37° S 04:35:01 10° ESE
Cosmos 614 Rocket 4.4 04:28:37 10° NNW 04:33:23 39° W 04:35:52 24° SSW
BREEZE-M DEB 3.2 04:36:07 76° W 04:36:13 79° NW 04:38:53 10° NE
Cosmos 1833 Rocket 3.4 04:32:06 10° N 04:37:36 55° ENE 04:43:05 10° SE
PSLV R/B 3.7 04:39:08 30° W 04:40:33 55° NNW 04:43:51 10° NE
PSLV R/B 4.0 04:37:15 10° N 04:41:20 60° WNW 04:43:38 24° SSW
EO 1 Del DPAF 4.4 04:42:22 24° W 04:42:29 24° W 04:45:39 10° NW
Cosmos 2173 Rocket 4.2 04:39:09 21° SSW 04:43:01 49° W 04:48:56 10° N
Timation 1 Rocket 4.4 04:40:02 21° SSW 04:44:10 69° WNW 04:50:10 10° NNE
Star 37E S/N 40062 3.2 04:46:11 35° S 04:46:11 35° S 04:48:59 10° ESE
Cosmos 2285 Rocket 4.0 04:42:42 15° SSW 04:48:03 83° WNW 04:54:24 10° NNE
Cosmos 1174 3.1 04:46:41 10° NNW 04:49:58 82° ENE 04:52:56 10° SSE
CENTAUR R/B 3.8 04:43:14 10° NW 04:50:01 30° WSW 04:56:53 10° SSW
Cosmos 2098 Rocket 3.3 04:47:18 10° S 04:50:30 54° E 04:54:26 10° NNE
BREEZE-M DEB (TANK) 3.6 04:45:28 17° SW 04:52:37 79° SE 04:55:52 10° NE
Atlas Centaur 2 3.7 04:46:35 17° SW 04:52:43 43° SSE 05:00:27 10° E
Cosmos 1486 Rocket 4.4 04:47:26 10° N 04:52:45 67° ENE 04:58:01 10° SSE
Cosmos 1802 Rocket 4.4 04:51:21 16° SSW 04:55:51 43° W 05:01:40 10° N
Delta R/B 2.8 04:55:42 25° S 04:55:55 26° SSE 04:58:28 10° E
ARIANE 5 R/B 4.5 04:54:32 10° NW 04:56:31 12° WNW 04:58:28 10° W
ADEOS Rocket 4.5 04:51:34 10° NE 04:56:37 33° E 05:01:58 10° SSE
Cosmos 2369 Rocket 3.2 04:57:55 10° S 05:03:20 46° ESE 05:08:44 10° NNE
Resurs 1-4 Rocket 3.9 05:03:14 10° NNW 05:06:13 15° WNW 05:09:04 10° W
CSL-04 DEB 4.4 05:08:51 10° N 05:12:59 73° WNW 05:16:58 10° SSW
Thor Agena Rocket 3.6 05:07:53 10° S 05:13:01 63° WSW 05:18:07 10° NNW
Cosmos 1825 Rocket 3.6 05:11:37 10° N 05:16:00 83° E 05:20:22 10° S
ATLAS 5 CENTAUR R/B 3.1 05:12:09 10° NW 05:17:42 34° WSW 05:23:27 10° S
Cosmos 1726 Rocket 3.6 05:13:17 10° S 05:17:43 87° W 05:22:08 10° N
Cosmos 2084 3.7 05:20:51 10° SW 05:24:29 43° WNW 05:28:10 10° NNE
Okean-O 2.7 05:20:59 10° N 05:25:22 61° WNW 05:29:43 10° SSW
Cosmos 2058 Rocket 3.1 05:21:22 10° S 05:25:44 85° E 05:30:05 10° N
Yuri Rocket 3.8 05:21:58 10° W 05:27:09 40° SSW 05:31:18 10° SE
ADEOS II 2.2 05:22:03 10° NNE 05:27:20 84° ESE 05:32:36 10° SSW
USA 116 3.7 05:27:58 10° SSE 05:32:05 86° ENE 05:35:42 10° N
Okean O Rocket 3.5 05:30:05 10° NW 05:32:30 15° WNW 05:34:55 10° WSW
Tsikada Rocket 4.2 05:31:40 10° NNW 05:37:39 54° W 05:43:41 10° SSW
